NORTHEAST SUFFOLK  -  Winter Storm Watch Winter Storm Watch        NORTHERN NASSAU  -  Winter Storm Watch Winter Storm Watch        NORTHERN QUEENS  -  Winter Storm Watch Winter Storm Watch        NORTHWEST SUFFOLK  -  Winter Storm Watch Winter Storm Watch        SOUTHEAST SUFFOLK  -  Winter Storm Watch Winter Storm Watch        SOUTHERN NASSAU  -  Winter Storm Watch Winter Storm Watch        SOUTHERN QUEENS  -  Winter Storm Watch Winter Storm Watch        SOUTHWEST SUFFOLK  -  Winter Storm Watch Winter Storm Watch      

Active alerts

Northern Queens
  Details for Northern Queens Winter Storm Watch
Southern Queens
  Details for Southern Queens Winter Storm Watch
Northern Nassau
  Details for Northern Nassau Winter Storm Watch
Southern Nassau
  Details for Southern Nassau Winter Storm Watch
Northwest Suffolk
  Details for Northwest Suffolk Winter Storm Watch
Southwest Suffolk
  Details for Southwest Suffolk Winter Storm Watch
Northeast Suffolk
  Details for Northeast Suffolk Winter Storm Watch
Southeast Suffolk
  Details for Southeast Suffolk Winter Storm Watch


WXM80 ListenWXM80 Stop

You find our weather info also at:

UK Metoffice

WeatherCloud

Weather Underground

Northeastern Weather Network

AWEKAS

Citizen Weather Observer Program (CWOP)

HAMweather, WeatherForYou, PWS Weather


Weather Underground History page Text

Daily Summary for September 7, 2017 Units:  English    Metric   Both
« Previous Day
Next Day »
Daily Weekly Monthly Yearly Custom
  High: Low: Average:
Temperature: 76.7 °F 59.4 °F 66.5 °F
Dew Point: 64.5 °F 53.2 °F 59 °F
Humidity: 97 % 53 % 79 %
Wind Speed: 6.2 mph 0.0 mph 1.9 mph
Wind Gust: 14.0 mph - -
Wind:- - WSW
Pressure: 29.95 in 29.71 in -
Precipitation: 0.05 in    
Historical Graphs
 
 
Tabular Data for September 7, 2017
Time Temperature Dew Point Pressure Wind Wind Speed Wind Gust Humidity Rainfall Rate (Hourly)
00:07 62.2 °F 61.0 °F 29.81 in North 2.2 mph 3.5 mph 96 % 0.08 in
00:12 62.1 °F 60.9 °F 29.80 in North 1.1 mph 3.5 mph 96 % 0.07 in
00:17 62.2 °F 61.0 °F 29.80 in NNW 2.7 mph 4.6 mph 96 % 0.06 in
00:22 62.2 °F 61.0 °F 29.80 in North 3.2 mph 4.6 mph 96 % 0.06 in
00:27 62.1 °F 60.9 °F 29.80 in NNE 1.4 mph 3.5 mph 96 % 0.05 in
00:32 62.1 °F 60.9 °F 29.81 in NNE 0.3 mph 3.5 mph 96 % 0.05 in
00:37 62.1 °F 60.9 °F 29.82 in NNE 0.5 mph 2.3 mph 96 % 0.03 in
00:42 62.0 °F 60.8 °F 29.81 in Calm     96 % 0.02 in
00:53 62.0 °F 60.8 °F 29.81 in Calm     96 % 0.02 in
00:58 62.0 °F 60.8 °F 29.80 in Calm     96 % 0.02 in
01:03 62.0 °F 60.8 °F 29.80 in Calm   1.0 mph 96 % 0.01 in
01:08 62.0 °F 60.8 °F 29.80 in Calm     96 % 0.01 in
01:13 61.9 °F 60.7 °F 29.79 in Calm   1.2 mph 96 % 0.01 in
01:18 61.9 °F 60.7 °F 29.79 in Calm     96 % 0.01 in
01:23 61.9 °F 60.7 °F 29.79 in Calm     96 % 0.01 in
01:28 61.9 °F 60.7 °F 29.78 in Calm     96 % 0.01 in
01:33 61.9 °F 60.7 °F 29.76 in Calm   1.2 mph 96 % 0.01 in
01:38 62.0 °F 60.8 °F 29.77 in Calm     96 % 0.01 in
01:43 62.0 °F 61.1 °F 29.76 in North 0.1 mph 1.2 mph 97 % 0.01 in
01:48 62.0 °F 61.1 °F 29.77 in Calm     97 % 0.00 in
01:53 62.0 °F 61.1 °F 29.77 in North 0.2 mph 1.2 mph 97 % 0.00 in
01:58 62.0 °F 61.1 °F 29.76 in NE 0.4 mph 1.2 mph 97 % 0.00 in
02:03 62.0 °F 61.1 °F 29.75 in Calm     97 % 0.00 in
02:08 62.0 °F 61.1 °F 29.76 in Calm     97 % 0.00 in
02:13 62.0 °F 61.1 °F 29.75 in NE 0.4 mph 1.0 mph 97 % 0.00 in
02:18 61.9 °F 61.0 °F 29.76 in Calm     97 % 0.00 in
02:23 61.9 °F 61.0 °F 29.74 in Calm     97 % 0.00 in
02:28 62.0 °F 61.1 °F 29.75 in NE 0.3 mph 2.3 mph 97 % 0.00 in
02:33 61.9 °F 61.0 °F 29.75 in NE 0.6 mph 2.0 mph 97 % 0.00 in
02:39 61.9 °F 61.0 °F 29.74 in Calm   1.2 mph 97 % 0.00 in
02:44 61.9 °F 61.0 °F 29.74 in Calm     97 % 0.00 in
02:49 61.9 °F 61.0 °F 29.71 in SE 0.5 mph 2.3 mph 97 % 0.00 in
02:54 61.9 °F 61.0 °F 29.72 in ESE 0.2 mph 3.5 mph 97 % 0.00 in
02:59 61.8 °F 60.9 °F 29.73 in Calm     97 % 0.00 in
03:04 61.8 °F 60.9 °F 29.72 in ESE 0.8 mph 3.5 mph 97 % 0.00 in
03:09 61.8 °F 60.9 °F 29.72 in Calm   1.2 mph 97 % 0.00 in
03:14 61.7 °F 60.8 °F 29.72 in ESE 0.1 mph 1.2 mph 97 % 0.00 in
03:19 61.7 °F 60.8 °F 29.72 in ESE 0.1 mph 1.2 mph 97 % 0.00 in
03:24 61.6 °F 60.7 °F 29.73 in WSW 1.8 mph 3.5 mph 97 % 0.00 in
03:29 61.6 °F 60.7 °F 29.75 in SW 3.7 mph 10.4 mph 97 % 0.00 in
03:34 61.7 °F 60.8 °F 29.75 in SSW 5.3 mph 10.4 mph 97 % 0.00 in
03:39 61.7 °F 60.8 °F 29.75 in WSW 1.0 mph 4.6 mph 97 % 0.00 in
03:44 61.8 °F 60.9 °F 29.75 in WNW 3.5 mph 5.0 mph 97 % 0.00 in
03:49 61.9 °F 61.0 °F 29.75 in South 2.7 mph 9.0 mph 97 % 0.00 in
03:54 62.0 °F 61.1 °F 29.76 in WSW 2.1 mph 5.0 mph 97 % 0.00 in
03:59 62.0 °F 61.1 °F 29.76 in WNW 1.4 mph 3.5 mph 97 % 0.01 in
04:04 62.1 °F 61.2 °F 29.76 in SW 2.8 mph 5.8 mph 97 % 0.01 in
04:14 62.1 °F 61.2 °F 29.76 in West 1.2 mph 3.5 mph 97 % 0.01 in
04:19 62.1 °F 61.2 °F 29.76 in Calm   3.5 mph 97 % 0.01 in
04:24 62.1 °F 61.2 °F 29.76 in SW 0.9 mph 3.5 mph 97 % 0.01 in
04:29 62.1 °F 61.2 °F 29.76 in WSW 0.9 mph 2.0 mph 97 % 0.01 in
04:34 62.0 °F 61.1 °F 29.76 in SW 0.2 mph 1.2 mph 97 % 0.01 in
04:39 62.0 °F 61.1 °F 29.76 in WSW 0.5 mph 2.0 mph 97 % 0.01 in
04:44 62.0 °F 61.1 °F 29.76 in WSW 2.3 mph 4.6 mph 97 % 0.01 in
04:49 62.0 °F 61.1 °F 29.76 in WSW 2.9 mph 4.6 mph 97 % 0.01 in
04:54 62.0 °F 61.1 °F 29.77 in SW 0.8 mph 3.5 mph 97 % 0.01 in
05:00 62.0 °F 61.1 °F 29.77 in SW 1.6 mph 3.5 mph 97 % 0.00 in
05:05 62.0 °F 61.1 °F 29.76 in Calm   1.0 mph 97 % 0.00 in
05:08 62.0 °F 61.1 °F 29.77 in Calm   1.2 mph 97 % 0.00 in
05:13 62.0 °F 61.1 °F 29.77 in WSW 1.1 mph 3.5 mph 97 % 0.00 in
05:18 61.9 °F 61.0 °F 29.77 in SW 1.8 mph 5.8 mph 97 % 0.00 in
05:23 61.9 °F 61.0 °F 29.77 in SSW 2.4 mph 5.8 mph 97 % 0.00 in
05:28 61.8 °F 60.9 °F 29.77 in SW 2.0 mph 3.5 mph 97 % 0.00 in
05:29 61.8 °F 60.9 °F 29.77 in SW 0.2 mph 3.5 mph 97 % 0.00 in
05:34 61.8 °F 60.9 °F 29.78 in SW 2.7 mph 4.6 mph 97 % 0.00 in
05:39 61.8 °F 60.9 °F 29.77 in WSW 0.5 mph 2.3 mph 97 % 0.00 in
05:45 61.8 °F 60.9 °F 29.78 in West 2.1 mph 6.9 mph 97 % 0.00 in
05:50 61.8 °F 60.9 °F 29.78 in WSW 4.4 mph 6.9 mph 97 % 0.00 in
05:55 61.7 °F 60.8 °F 29.78 in SW 2.5 mph 5.0 mph 97 % 0.00 in
06:00 61.7 °F 60.8 °F 29.78 in West 1.7 mph 7.0 mph 97 % 0.00 in
06:05 61.7 °F 60.8 °F 29.78 in West 2.8 mph 10.0 mph 97 % 0.02 in
06:10 61.7 °F 60.8 °F 29.79 in WNW 3.5 mph 8.1 mph 97 % 0.02 in
06:15 61.5 °F 60.6 °F 29.79 in WSW 5.6 mph 12.7 mph 97 % 0.02 in
06:20 61.4 °F 60.5 °F 29.80 in NW 3.6 mph 6.9 mph 97 % 0.02 in
06:25 61.2 °F 60.3 °F 29.80 in West 1.7 mph 3.5 mph 97 % 0.02 in
06:30 61.0 °F 59.9 °F 29.80 in West 1.9 mph 4.6 mph 96 % 0.02 in
06:35 61.0 °F 60.1 °F 29.80 in WNW 4.3 mph 6.9 mph 97 % 0.02 in
06:40 60.9 °F 59.8 °F 29.81 in WNW 0.9 mph 4.0 mph 96 % 0.02 in
06:45 60.8 °F 59.9 °F 29.81 in West 1.7 mph 4.6 mph 97 % 0.02 in
06:50 60.7 °F 59.6 °F 29.81 in WSW 4.6 mph 9.0 mph 96 % 0.02 in
06:55 60.5 °F 59.4 °F 29.81 in NNW 0.6 mph 2.0 mph 96 % 0.02 in
07:00 60.4 °F 59.3 °F 29.81 in WNW 1.5 mph 3.5 mph 96 % 0.01 in
07:05 60.2 °F 59.1 °F 29.81 in WSW 0.6 mph 3.5 mph 96 % 0.00 in
07:10 60.0 °F 58.9 °F 29.81 in NW 0.1 mph 1.2 mph 96 % 0.00 in
07:15 59.9 °F 58.8 °F 29.81 in Calm   1.2 mph 96 % 0.00 in
07:20 59.7 °F 58.6 °F 29.81 in West 0.9 mph 2.0 mph 96 % 0.00 in
07:25 59.6 °F 58.2 °F 29.81 in WSW 0.6 mph 3.5 mph 95 % 0.00 in
07:31 59.5 °F 58.1 °F 29.81 in WSW 1.0 mph 7.0 mph 95 % 0.00 in
07:36 59.4 °F 58.3 °F 29.81 in West 1.0 mph 5.0 mph 96 % 0.00 in
07:46 59.4 °F 58.3 °F 29.81 in Calm   4.0 mph 96 % 0.00 in
07:51 59.4 °F 58.3 °F 29.81 in Calm   3.0 mph 96 % 0.00 in
07:56 59.4 °F 58.3 °F 29.81 in Calm     96 % 0.00 in
08:01 59.5 °F 58.4 °F 29.81 in Calm     96 % 0.00 in
08:06 59.6 °F 58.5 °F 29.81 in WSW 2.0 mph 6.0 mph 96 % 0.00 in
08:11 59.6 °F 58.5 °F 29.81 in Calm   5.0 mph 96 % 0.00 in
08:16 59.7 °F 58.6 °F 29.82 in SW 1.0 mph 5.0 mph 96 % 0.00 in
08:21 59.7 °F 58.6 °F 29.81 in SW 1.0 mph 6.0 mph 96 % 0.00 in
08:26 59.8 °F 58.6 °F 29.82 in SW 1.0 mph 3.0 mph 96 % 0.00 in
08:31 59.8 °F 58.7 °F 29.82 in SW 1.0 mph 4.0 mph 96 % 0.00 in
08:36 59.9 °F 58.8 °F 29.82 in SW 2.0 mph 8.0 mph 96 % 0.00 in
08:41 60.1 °F 59.2 °F 29.81 in WSW 2.0 mph 6.0 mph 97 % 0.00 in
08:46 60.3 °F 59.4 °F 29.82 in WSW 1.0 mph 5.0 mph 97 % 0.00 in
08:51 60.4 °F 59.5 °F 29.81 in WSW 5.0 mph 7.0 mph 97 % 0.00 in
08:56 60.5 °F 59.6 °F 29.81 in WSW 1.0 mph 5.0 mph 97 % 0.00 in
09:01 60.6 °F 59.7 °F 29.81 in WSW 2.8 mph 8.1 mph 97 % 0.00 in
09:06 60.7 °F 59.8 °F 29.81 in Calm   2.3 mph 97 % 0.00 in
09:11 60.8 °F 59.9 °F 29.82 in South 3.4 mph 5.8 mph 97 % 0.00 in
09:16 60.8 °F 59.9 °F 29.81 in West 2.2 mph 3.5 mph 97 % 0.00 in
09:21 60.8 °F 59.9 °F 29.82 in WSW 0.9 mph 3.5 mph 97 % 0.00 in
09:26 60.9 °F 59.8 °F 29.81 in WNW 1.7 mph 3.5 mph 96 % 0.00 in
09:31 60.9 °F 59.8 °F 29.82 in WSW 1.1 mph 5.8 mph 96 % 0.00 in
09:36 61.1 °F 60.0 °F 29.82 in WSW 2.3 mph 4.6 mph 96 % 0.00 in
09:41 61.2 °F 60.1 °F 29.82 in West 2.0 mph 3.0 mph 96 % 0.00 in
09:46 61.4 °F 60.2 °F 29.83 in SW 2.6 mph 7.0 mph 96 % 0.00 in
09:52 61.6 °F 60.4 °F 29.82 in WSW 2.5 mph 5.8 mph 96 % 0.00 in
09:57 61.9 °F 60.7 °F 29.82 in WSW 2.5 mph 8.1 mph 96 % 0.00 in
10:02 62.2 °F 60.8 °F 29.83 in WSW 3.7 mph 6.9 mph 95 % 0.00 in
10:07 62.5 °F 61.0 °F 29.83 in WSW 1.4 mph 3.5 mph 95 % 0.00 in
10:12 62.8 °F 61.3 °F 29.82 in WSW 2.2 mph 6.0 mph 95 % 0.00 in
10:17 63.0 °F 61.2 °F 29.83 in SW 4.0 mph 9.0 mph 94 % 0.00 in
10:22 63.2 °F 61.1 °F 29.83 in SSW 2.4 mph 6.9 mph 93 % 0.00 in
10:27 63.5 °F 61.1 °F 29.83 in SW 3.3 mph 6.0 mph 92 % 0.00 in
10:32 63.8 °F 61.4 °F 29.83 in West 1.1 mph 5.0 mph 92 % 0.00 in
10:37 64.1 °F 61.4 °F 29.83 in West 1.8 mph 6.0 mph 91 % 0.00 in
10:42 64.4 °F 61.7 °F 29.83 in West 2.7 mph 3.5 mph 91 % 0.00 in
10:47 64.8 °F 62.1 °F 29.83 in WSW 2.5 mph 5.0 mph 91 % 0.00 in
10:52 65.2 °F 62.5 °F 29.83 in WSW 5.3 mph 9.0 mph 91 % 0.00 in
10:57 65.7 °F 62.0 °F 29.83 in SW 0.8 mph 4.6 mph 88 % 0.00 in
11:02 66.2 °F 62.5 °F 29.83 in WSW 4.3 mph 7.0 mph 88 % 0.00 in
11:07 66.9 °F 62.2 °F 29.83 in West 6.1 mph 8.1 mph 85 % 0.00 in
11:12 67.6 °F 62.6 °F 29.83 in SSE 4.2 mph 5.8 mph 84 % 0.00 in
11:17 68.4 °F 63.7 °F 29.83 in WSW 2.0 mph 3.5 mph 85 % 0.00 in
11:22 69.3 °F 64.3 °F 29.83 in West 2.2 mph 5.8 mph 84 % 0.00 in
11:28 70.0 °F 63.5 °F 29.83 in NW 1.8 mph 5.8 mph 80 % 0.00 in
11:33 70.6 °F 63.8 °F 29.83 in West 3.6 mph 7.0 mph 79 % 0.00 in
11:38 71.3 °F 64.1 °F 29.84 in West 1.6 mph 3.5 mph 78 % 0.00 in
11:43 71.8 °F 63.1 °F 29.84 in WSW 5.8 mph 11.5 mph 74 % 0.00 in
11:48 72.4 °F 64.4 °F 29.84 in WNW 3.1 mph 6.9 mph 76 % 0.00 in
11:53 72.7 °F 63.5 °F 29.84 in West 4.2 mph 6.9 mph 73 % 0.00 in
11:58 73.0 °F 63.0 °F 29.84 in SW 3.4 mph 8.1 mph 71 % 0.00 in
12:03 73.5 °F 63.5 °F 29.85 in WSW 4.1 mph 11.5 mph 71 % 0.00 in
12:08 73.7 °F 63.3 °F 29.85 in WSW 4.6 mph 9.0 mph 70 % 0.00 in
12:13 73.7 °F 62.5 °F 29.85 in ESE 2.8 mph 8.1 mph 68 % 0.00 in
12:18 73.5 °F 63.1 °F 29.85 in West 4.7 mph 6.9 mph 70 % 0.00 in
12:23 73.5 °F 62.7 °F 29.84 in West 4.9 mph 9.2 mph 69 % 0.00 in
12:28 73.6 °F 63.2 °F 29.84 in SW 5.1 mph 8.0 mph 70 % 0.00 in
12:33 73.6 °F 62.0 °F 29.84 in SW 4.6 mph 6.0 mph 67 % 0.00 in
12:38 74.0 °F 63.6 °F 29.84 in West 5.2 mph 5.8 mph 70 % 0.00 in
12:43 74.1 °F 63.3 °F 29.84 in NNW 2.2 mph 6.9 mph 69 % 0.00 in
12:48 74.4 °F 62.7 °F 29.84 in SW 1.9 mph 5.8 mph 67 % 0.00 in
12:53 74.7 °F 62.1 °F 29.85 in WSW 4.6 mph 8.1 mph 65 % 0.00 in
12:58 74.7 °F 61.7 °F 29.84 in WSW 3.0 mph 9.2 mph 64 % 0.00 in
13:03 74.8 °F 62.7 °F 29.84 in WNW 4.1 mph 4.6 mph 66 % 0.00 in
13:09 74.8 °F 61.8 °F 29.84 in West 4.3 mph 8.1 mph 64 % 0.00 in
13:14 75.0 °F 64.5 °F 29.84 in NW 1.7 mph 4.0 mph 70 % 0.00 in
13:19 75.0 °F 62.4 °F 29.84 in SW 5.5 mph 11.5 mph 65 % 0.00 in
13:24 75.0 °F 62.0 °F 29.83 in NW 4.2 mph 10.4 mph 64 % 0.00 in
13:29 75.1 °F 61.2 °F 29.84 in SW 5.5 mph 10.0 mph 62 % 0.00 in
13:34 75.1 °F 62.5 °F 29.84 in NW 4.1 mph 7.0 mph 65 % 0.00 in
13:39 75.2 °F 62.2 °F 29.84 in West 4.8 mph 8.1 mph 64 % 0.00 in
13:44 75.5 °F 62.9 °F 29.84 in SW 4.4 mph 8.1 mph 65 % 0.00 in
13:49 75.6 °F 62.6 °F 29.83 in WNW 3.3 mph 7.0 mph 64 % 0.00 in
13:54 75.7 °F 62.2 °F 29.84 in WNW 1.8 mph 5.8 mph 63 % 0.00 in
13:59 75.9 °F 61.9 °F 29.83 in NW 1.8 mph 9.2 mph 62 % 0.00 in
14:04 75.9 °F 61.9 °F 29.83 in West 1.4 mph 10.4 mph 62 % 0.00 in
14:09 76.1 °F 63.0 °F 29.83 in WSW 2.2 mph 4.0 mph 64 % 0.00 in
14:14 76.2 °F 62.7 °F 29.83 in NNE 4.5 mph 9.0 mph 63 % 0.00 in
14:19 76.4 °F 62.0 °F 29.83 in SSW 0.6 mph 6.9 mph 61 % 0.00 in
14:24 76.5 °F 61.6 °F 29.83 in NW 1.9 mph 6.0 mph 60 % 0.00 in
14:29 76.6 °F 61.7 °F 29.83 in WSW 2.9 mph 6.9 mph 60 % 0.00 in
14:34 76.7 °F 62.2 °F 29.83 in WSW 6.2 mph 11.5 mph 61 % 0.00 in
14:39 76.5 °F 62.0 °F 29.83 in WNW 0.8 mph 4.6 mph 61 % 0.00 in
14:41 76.5 °F 62.0 °F 29.83 in West 3.0 mph 8.0 mph 61 % 0.00 in
14:46 76.4 °F 62.0 °F 29.83 in WNW 1.3 mph 5.8 mph 61 % 0.00 in
14:51 76.3 °F 61.4 °F 29.82 in WNW 4.2 mph 9.2 mph 60 % 0.00 in
14:56 76.2 °F 61.8 °F 29.82 in WNW 1.4 mph 4.0 mph 61 % 0.00 in
15:01 76.2 °F 61.3 °F 29.82 in NW 3.6 mph 8.1 mph 60 % 0.00 in
15:06 76.3 °F 60.9 °F 29.82 in WNW 4.4 mph 8.1 mph 59 % 0.00 in
15:11 76.3 °F 61.4 °F 29.82 in West 3.0 mph 7.0 mph 60 % 0.00 in
15:16 76.2 °F 60.8 °F 29.82 in WNW 2.4 mph 6.9 mph 59 % 0.00 in
15:21 76.0 °F 61.1 °F 29.82 in West 3.4 mph 4.6 mph 60 % 0.00 in
15:26 75.8 °F 61.4 °F 29.82 in WNW 1.4 mph 3.5 mph 61 % 0.00 in
15:31 75.6 °F 61.2 °F 29.82 in WSW 3.3 mph 5.8 mph 61 % 0.00 in
15:36 75.5 °F 61.1 °F 29.82 in WSW 2.8 mph 6.9 mph 61 % 0.00 in
15:41 75.5 °F 60.6 °F 29.82 in WSW 3.8 mph 8.1 mph 60 % 0.00 in
15:46 75.5 °F 60.6 °F 29.82 in SW 3.6 mph 6.9 mph 60 % 0.00 in
15:51 75.4 °F 60.1 °F 29.82 in SSW 2.1 mph 4.0 mph 59 % 0.00 in
15:56 75.5 °F 59.7 °F 29.82 in SW 4.9 mph 9.2 mph 58 % 0.00 in
16:01 75.6 °F 59.8 °F 29.82 in SW 4.3 mph 9.2 mph 58 % 0.00 in
16:06 75.6 °F 59.3 °F 29.82 in WSW 2.0 mph 8.1 mph 57 % 0.00 in
16:11 75.7 °F 59.9 °F 29.82 in WSW 3.4 mph 14.0 mph 58 % 0.00 in
16:16 75.7 °F 58.9 °F 29.81 in SW 3.9 mph 8.1 mph 56 % 0.00 in
16:21 75.7 °F 58.4 °F 29.82 in WSW 4.7 mph 6.9 mph 55 % 0.00 in
16:26 75.7 °F 59.4 °F 29.82 in SW 5.5 mph 8.1 mph 57 % 0.00 in
16:31 75.7 °F 59.4 °F 29.82 in WSW 2.0 mph 3.5 mph 57 % 0.00 in
16:36 75.6 °F 58.8 °F 29.82 in WSW 3.5 mph 5.0 mph 56 % 0.00 in
16:41 75.5 °F 59.7 °F 29.82 in WSW 1.3 mph 4.6 mph 58 % 0.00 in
16:46 75.5 °F 60.6 °F 29.82 in SW 5.7 mph 8.1 mph 60 % 0.00 in
16:51 75.5 °F 59.7 °F 29.82 in West 2.5 mph 3.5 mph 58 % 0.00 in
16:56 75.4 °F 59.1 °F 29.82 in WSW 4.7 mph 5.0 mph 57 % 0.00 in
17:01 75.3 °F 60.0 °F 29.82 in SSW 0.8 mph 4.0 mph 59 % 0.00 in
17:06 75.1 °F 58.8 °F 29.82 in Calm   3.5 mph 57 % 0.00 in
17:11 75.0 °F 59.7 °F 29.82 in SSW 0.2 mph 1.2 mph 59 % 0.00 in
17:16 74.9 °F 58.6 °F 29.82 in SW 2.1 mph 5.8 mph 57 % 0.00 in
17:21 74.7 °F 57.5 °F 29.83 in WSW 3.8 mph 8.1 mph 55 % 0.00 in
17:26 74.5 °F 57.3 °F 29.83 in NW 3.1 mph 11.0 mph 55 % 0.00 in
17:31 74.1 °F 56.9 °F 29.82 in WNW 5.2 mph 8.1 mph 55 % 0.00 in
17:36 73.9 °F 55.7 °F 29.82 in SW 5.6 mph 8.1 mph 53 % 0.00 in
17:41 73.6 °F 56.4 °F 29.83 in SSW 4.0 mph 7.0 mph 55 % 0.00 in
17:46 73.3 °F 55.6 °F 29.83 in SSW 2.7 mph 8.1 mph 54 % 0.00 in
17:52 73.0 °F 55.9 °F 29.83 in SSW 3.2 mph 3.5 mph 55 % 0.00 in
17:57 72.7 °F 55.1 °F 29.83 in WSW 3.1 mph 9.2 mph 54 % 0.00 in
18:02 72.4 °F 55.3 °F 29.83 in SW 5.6 mph 10.4 mph 55 % 0.00 in
18:07 72.2 °F 55.6 °F 29.83 in WSW 1.8 mph 3.5 mph 56 % 0.00 in
18:12 72.1 °F 55.5 °F 29.83 in WSW 3.9 mph 5.8 mph 56 % 0.00 in
18:17 71.8 °F 55.3 °F 29.83 in WSW 2.9 mph 6.9 mph 56 % 0.00 in
18:22 71.6 °F 55.6 °F 29.84 in SW 2.0 mph 4.0 mph 57 % 0.00 in
18:27 71.3 °F 55.3 °F 29.84 in SW 1.4 mph 3.5 mph 57 % 0.00 in
18:32 71.1 °F 55.6 °F 29.84 in SSW 2.3 mph 4.0 mph 58 % 0.00 in
18:37 70.9 °F 55.4 °F 29.84 in WSW 1.3 mph 3.5 mph 58 % 0.00 in
18:42 70.6 °F 55.6 °F 29.84 in WSW 2.2 mph 6.9 mph 59 % 0.00 in
18:44 70.5 °F 55.5 °F 29.84 in SSW 2.7 mph 4.6 mph 59 % 0.00 in
18:49 70.3 °F 55.3 °F 29.85 in WSW 2.2 mph 4.0 mph 59 % 0.00 in
18:54 70.0 °F 55.5 °F 29.85 in WSW 0.7 mph 5.8 mph 60 % 0.00 in
18:59 69.8 °F 55.3 °F 29.85 in West 1.3 mph 3.5 mph 60 % 0.00 in
19:04 69.6 °F 55.6 °F 29.85 in South 0.9 mph 3.5 mph 61 % 0.00 in
19:09 69.3 °F 54.8 °F 29.85 in WSW 3.9 mph 8.1 mph 60 % 0.00 in
19:14 69.1 °F 54.6 °F 29.85 in SW 2.4 mph 6.0 mph 60 % 0.00 in
19:19 68.9 °F 54.4 °F 29.86 in WSW 2.5 mph 2.5 mph 60 % 0.00 in
19:25 68.7 °F 54.3 °F 29.86 in SW 1.0 mph 3.5 mph 60 % 0.00 in
19:30 68.5 °F 54.1 °F 29.86 in South 1.9 mph 4.0 mph 60 % 0.00 in
19:35 68.4 °F 54.0 °F 29.87 in Calm   2.3 mph 60 % 0.00 in
19:40 68.2 °F 53.8 °F 29.87 in WSW 0.5 mph 8.1 mph 60 % 0.00 in
19:45 68.0 °F 54.0 °F 29.87 in WSW 1.1 mph 4.6 mph 61 % 0.00 in
19:50 67.9 °F 54.0 °F 29.87 in SW 1.4 mph 3.5 mph 61 % 0.00 in
19:55 67.7 °F 53.3 °F 29.88 in SSW 1.6 mph 4.6 mph 60 % 0.00 in
20:00 67.5 °F 53.6 °F 29.88 in SW 0.5 mph 2.3 mph 61 % 0.00 in
20:05 67.3 °F 53.4 °F 29.88 in SW 1.4 mph 3.5 mph 61 % 0.00 in
20:10 67.1 °F 53.6 °F 29.89 in SW 2.0 mph 3.5 mph 62 % 0.00 in
20:15 66.9 °F 53.5 °F 29.89 in SW 0.2 mph 2.0 mph 62 % 0.00 in
20:20 66.8 °F 53.4 °F 29.89 in SW 1.8 mph 3.5 mph 62 % 0.00 in
20:25 66.6 °F 53.6 °F 29.89 in SW 0.1 mph 1.2 mph 63 % 0.00 in
20:30 66.4 °F 53.8 °F 29.89 in SW 1.7 mph 2.3 mph 64 % 0.00 in
20:35 66.2 °F 53.7 °F 29.90 in WSW 1.6 mph 2.0 mph 64 % 0.00 in
20:40 66.0 °F 53.5 °F 29.90 in WSW 0.9 mph 1.0 mph 64 % 0.00 in
20:46 65.8 °F 53.7 °F 29.90 in WSW 0.8 mph 2.3 mph 65 % 0.00 in
20:51 65.6 °F 53.5 °F 29.90 in SW 1.4 mph 2.3 mph 65 % 0.00 in
20:56 65.5 °F 53.4 °F 29.91 in SW 1.0 mph 4.0 mph 65 % 0.00 in
21:01 65.4 °F 53.7 °F 29.91 in SW 0.3 mph 3.5 mph 66 % 0.00 in
21:06 65.2 °F 53.6 °F 29.91 in WSW 0.8 mph 3.5 mph 66 % 0.00 in
21:11 65.0 °F 53.8 °F 29.91 in WSW 1.9 mph 3.5 mph 67 % 0.00 in
21:16 64.9 °F 53.7 °F 29.91 in Calm   1.2 mph 67 % 0.00 in
21:21 64.7 °F 53.5 °F 29.91 in SW 0.4 mph 2.3 mph 67 % 0.00 in
21:26 64.6 °F 53.4 °F 29.91 in SW 0.7 mph 2.3 mph 67 % 0.00 in
21:31 64.4 °F 53.6 °F 29.91 in Calm     68 % 0.00 in
21:36 64.3 °F 53.5 °F 29.91 in SW 0.2 mph 2.0 mph 68 % 0.00 in
21:41 64.1 °F 53.7 °F 29.92 in SW 1.0 mph 3.5 mph 69 % 0.00 in
21:46 64.0 °F 53.6 °F 29.92 in SSW 0.1 mph 3.5 mph 69 % 0.00 in
21:51 63.8 °F 53.8 °F 29.92 in SW 0.3 mph 2.3 mph 70 % 0.00 in
21:56 63.6 °F 53.6 °F 29.92 in SW 1.4 mph 4.0 mph 70 % 0.00 in
22:01 63.4 °F 53.8 °F 29.93 in WSW 1.0 mph 3.5 mph 71 % 0.00 in
22:11 63.1 °F 53.5 °F 29.93 in WSW 0.7 mph 1.2 mph 71 % 0.00 in
22:17 63.0 °F 53.4 °F 29.93 in West 2.4 mph 5.8 mph 71 % 0.00 in
22:22 62.9 °F 53.7 °F 29.93 in SSW 1.7 mph 1.7 mph 72 % 0.00 in
22:27 62.8 °F 53.6 °F 29.93 in SW 1.8 mph 4.6 mph 72 % 0.00 in
22:32 62.8 °F 53.6 °F 29.93 in SW 0.9 mph 1.2 mph 72 % 0.00 in
22:37 62.7 °F 53.5 °F 29.93 in Calm     72 % 0.00 in
22:42 62.7 °F 53.5 °F 29.93 in Calm     72 % 0.00 in
22:47 62.6 °F 53.8 °F 29.93 in SW 0.1 mph 2.3 mph 73 % 0.00 in
22:52 62.6 °F 53.4 °F 29.93 in WSW 1.1 mph 4.0 mph 72 % 0.00 in
22:57 62.5 °F 53.3 °F 29.93 in Calm     72 % 0.00 in
23:02 62.5 °F 53.7 °F 29.94 in SSW 0.4 mph 3.0 mph 73 % 0.00 in
23:07 62.5 °F 53.7 °F 29.94 in SSW 0.1 mph 1.2 mph 73 % 0.00 in
23:12 62.4 °F 53.6 °F 29.94 in SSW 0.2 mph 3.5 mph 73 % 0.00 in
23:18 62.4 °F 53.6 °F 29.94 in SW 0.9 mph 3.5 mph 73 % 0.00 in
23:19 62.4 °F 53.6 °F 29.94 in SW 0.4 mph 2.3 mph 73 % 0.00 in
23:23 62.3 °F 53.5 °F 29.94 in SW 0.1 mph 2.3 mph 73 % 0.00 in
23:25 62.3 °F 53.5 °F 29.94 in SW 0.2 mph 1.2 mph 73 % 0.00 in
23:26 62.3 °F 53.5 °F 29.94 in Calm   1.2 mph 73 % 0.00 in
23:27 62.3 °F 53.5 °F 29.94 in Calm     73 % 0.00 in
23:32 62.2 °F 53.4 °F 29.94 in SW 0.5 mph 2.3 mph 73 % 0.00 in
23:35 62.2 °F 53.4 °F 29.94 in SW 0.5 mph 1.0 mph 73 % 0.00 in
23:40 62.1 °F 53.7 °F 29.94 in SW 0.3 mph 1.2 mph 74 % 0.00 in
23:45 62.0 °F 53.2 °F 29.94 in Calm   1.2 mph 73 % 0.00 in
23:50 61.9 °F 53.5 °F 29.95 in SW 1.9 mph 5.8 mph 74 % 0.00 in
23:55 61.8 °F 53.4 °F 29.95 in SSE 0.3 mph 1.2 mph 74 % 0.00 in
Crab Meadow Weather
Compliments of Weather Underground - 3 mb

Script developed by  Jim McMurry - jmcmurry@mwt.net Adapted for the template by  Wim van der Kuil - Leuven-Template.eu

Extremes: The heaviest hailstones on record, weighing up to 2.25 pounds were reported to have killed 92 people in the Gopalganj district of Bangladesh on April 14, 1986.